Hourly Weather Rudzica

Today, 20 April, Tuesday

Time Temperature Precipitation Wind Pressure Humidity
00:00 +10°C° 0 mm 1 mps 754 mmHg 71%
01:00 +10°C° 0 mm 1 mps 754 mmHg 73%
02:00 +10°C° 0 mm 1 mps 754 mmHg 73%
03:00 +9°C° 0 mm 1 mps 754 mmHg 74%
04:00 +9°C° 0 mm 1 mps 754 mmHg 74%
05:00 +10°C° 0 mm 1 mps 754 mmHg 73%
06:00 +10°C° 0 mm 1 mps 754 mmHg 72%
07:00 +11°C° 0 mm 1 mps 754 mmHg 71%
08:00 +12°C° 0.1 mm 1 mps 754 mmHg 67%
09:00 +13°C° 0.1 mm 1 mps 754 mmHg 64%
10:00 +14°C° 0.1 mm 1 mps 754 mmHg 60%
11:00 +14°C° 0.3 mm 1 mps 754 mmHg 57%
12:00 +15°C° 0.3 mm 1 mps 753 mmHg 55%
13:00 +16°C° 0.3 mm 1 mps 753 mmHg 53%
14:00 +16°C° 0.1 mm 1 mps 753 mmHg 53%
15:00 +15°C° 0.1 mm 0 mps 752 mmHg 52%
16:00 +15°C° 0.1 mm 0 mps 752 mmHg 52%
17:00 +13°C° 0.2 mm 0 mps 752 mmHg 58%
18:00 +13°C° 0.2 mm 1 mps 752 mmHg 63%
19:00 +12°C° 0.2 mm 1 mps 752 mmHg 69%
20:00 +12°C° 0.1 mm 1 mps 752 mmHg 71%
21:00 +11°C° 0.1 mm 1 mps 752 mmHg 74%
22:00 +11°C° 0.1 mm 1 mps 752 mmHg 77%
23:00 +10°C° 0.2 mm 1 mps 751 mmHg 80%

Tomorrow, 21 April, Wednesday

Time Temperature Precipitation Wind Pressure Humidity
00:00 +10°C° 0.2 mm 1 mps 751 mmHg 82%
01:00 +10°C° 0.2 mm 1 mps 751 mmHg 85%
02:00 +8°C° 0.3 mm 2 mps 751 mmHg 87%
03:00 +8°C° 0.3 mm 2 mps 751 mmHg 90%
04:00 +7°C° 0.3 mm 2 mps 750 mmHg 92%
05:00 +8°C° 0.1 mm 2 mps 750 mmHg 89%
06:00 +8°C° 0.1 mm 3 mps 751 mmHg 86%
07:00 +9°C° 0.1 mm 3 mps 751 mmHg 83%
08:00 +10°C° 0 mm 4 mps 750 mmHg 76%
09:00 +12°C° 0 mm 4 mps 750 mmHg 69%
10:00 +13°C° 0 mm 5 mps 750 mmHg 61%
11:00 +14°C° 0.1 mm 5 mps 750 mmHg 58%
12:00 +14°C° 0.1 mm 6 mps 750 mmHg 55%
13:00 +15°C° 0.1 mm 6 mps 750 mmHg 52%
14:00 +14°C° 0.1 mm 5 mps 749 mmHg 54%
15:00 +14°C° 0.1 mm 5 mps 749 mmHg 56%
16:00 +13°C° 0.1 mm 5 mps 749 mmHg 58%
17:00 +12°C° 0 mm 4 mps 749 mmHg 61%
18:00 +12°C° 0 mm 4 mps 749 mmHg 64%
19:00 +11°C° 0 mm 3 mps 749 mmHg 67%
20:00 +10°C° 0 mm 4 mps 749 mmHg 70%
21:00 +10°C° 0 mm 4 mps 750 mmHg 73%
22:00 +8°C° 0 mm 5 mps 750 mmHg 76%
23:00 +7°C° 0.1 mm 4 mps 750 mmHg 79%

Day after tomorrow, 22 April, Thursday

Time Temperature Precipitation Wind Pressure Humidity
00:00 +6°C° 0.1 mm 4 mps 750 mmHg 82%
01:00 +5°C° 0.1 mm 4 mps 750 mmHg 85%
02:00 +5°C° 0.1 mm 4 mps 750 mmHg 85%
03:00 +3°C° 0.1 mm 5 mps 751 mmHg 84%
04:00 +3°C° 0.1 mm 5 mps 751 mmHg 83%
05:00 +2°C° 0 mm 6 mps 751 mmHg 79%
06:00 +2°C° 0 mm 6 mps 751 mmHg 75%
07:00 +2°C° 0 mm 7 mps 751 mmHg 70%
08:00 +3°C° 0 mm 7 mps 751 mmHg 65%
09:00 +4°C° 0 mm 7 mps 751 mmHg 60%
10:00 +5°C° 0 mm 8 mps 751 mmHg 55%
11:00 +5°C° 0 mm 8 mps 752 mmHg 53%
12:00 +6°C° 0 mm 8 mps 752 mmHg 51%
13:00 +6°C° 0 mm 8 mps 752 mmHg 49%
14:00 +6°C° 0 mm 8 mps 751 mmHg 49%
15:00 +7°C° 0 mm 8 mps 751 mmHg 50%
16:00 +7°C° 0 mm 8 mps 751 mmHg 50%
17:00 +6°C° 0.1 mm 7 mps 751 mmHg 60%
18:00 +4°C° 0.1 mm 6 mps 752 mmHg 69%
19:00 +3°C° 0.1 mm 5 mps 752 mmHg 79%
20:00 +2°C° 0 mm 6 mps 752 mmHg 82%
21:00 +2°C° 0 mm 6 mps 752 mmHg 84%
22:00 +2°C° 0 mm 6 mps 752 mmHg 87%
23:00 +1°C° 0.1 mm 6 mps 752 mmHg 87%

23 April, Friday

Time Temperature Precipitation Wind Pressure Humidity
00:00 +1°C° 0.1 mm 6 mps 752 mmHg 87%
01:00 +1°C° 0.1 mm 6 mps 753 mmHg 88%
02:00 +1°C° 0 mm 6 mps 753 mmHg 86%
03:00 +1°C° 0 mm 6 mps 753 mmHg 84%
04:00 +1°C° 0 mm 6 mps 753 mmHg 83%
05:00 +1°C° 0 mm 6 mps 754 mmHg 83%
06:00 +1°C° 0 mm 6 mps 754 mmHg 83%
07:00 +2°C° 0 mm 6 mps 755 mmHg 83%
08:00 +2°C° 0 mm 6 mps 755 mmHg 80%
09:00 +3°C° 0 mm 6 mps 755 mmHg 78%
10:00 +3°C° 0 mm 7 mps 756 mmHg 76%
11:00 +4°C° 0.2 mm 6 mps 756 mmHg 72%
12:00 +5°C° 0.2 mm 6 mps 756 mmHg 69%
13:00 +5°C° 0.2 mm 6 mps 757 mmHg 65%
14:00 +7°C° 0.2 mm 6 mps 757 mmHg 61%
15:00 +7°C° 0.2 mm 6 mps 757 mmHg 57%
16:00 +8°C° 0.2 mm 6 mps 757 mmHg 52%
17:00 +7°C° 0 mm 5 mps 757 mmHg 53%
18:00 +5°C° 0 mm 5 mps 758 mmHg 54%
19:00 +4°C° 0 mm 4 mps 758 mmHg 55%
20:00 +3°C° 0 mm 4 mps 759 mmHg 57%
21:00 +2°C° 0 mm 3 mps 759 mmHg 58%
22:00 +2°C° 0 mm 2 mps 759 mmHg 59%
23:00 +1°C° 0 mm 2 mps 759 mmHg 59%

24 April, Saturday

Time Temperature Precipitation Wind Pressure Humidity
00:00 0°C° 0 mm 3 mps 758 mmHg 58%
01:00 0°C° 0 mm 3 mps 758 mmHg 58%
02:00 +1°C° 0 mm 3 mps 758 mmHg 57%
03:00 0°C° 0 mm 4 mps 757 mmHg 57%
04:00 0°C° 0 mm 4 mps 757 mmHg 56%
05:00 +1°C° 0 mm 5 mps 757 mmHg 61%
06:00 +2°C° 0 mm 6 mps 756 mmHg 67%
07:00 +3°C° 0 mm 7 mps 756 mmHg 73%
08:00 +3°C° 0 mm 7 mps 756 mmHg 73%
09:00 +4°C° 0 mm 7 mps 756 mmHg 73%
10:00 +4°C° 0 mm 8 mps 756 mmHg 73%
11:00 +4°C° 0 mm 8 mps 756 mmHg 73%
12:00 +4°C° 0 mm 7 mps 756 mmHg 74%
13:00 +4°C° 0 mm 7 mps 756 mmHg 74%
14:00 +5°C° 0.1 mm 7 mps 756 mmHg 74%
15:00 +5°C° 0.1 mm 7 mps 756 mmHg 73%
16:00 +6°C° 0.1 mm 7 mps 756 mmHg 73%
17:00 +5°C° 0.2 mm 6 mps 757 mmHg 75%
18:00 +5°C° 0.2 mm 4 mps 757 mmHg 76%
19:00 +4°C° 0.2 mm 3 mps 757 mmHg 77%
20:00 +3°C° 0 mm 2 mps 758 mmHg 78%
21:00 +2°C° 0 mm 2 mps 758 mmHg 79%
22:00 +1°C° 0 mm 2 mps 759 mmHg 80%
23:00 +1°C° 0 mm 2 mps 759 mmHg 79%

25 April, Sunday

Time Temperature Precipitation Wind Pressure Humidity
00:00 -1°C° 0 mm 2 mps 759 mmHg 79%
01:00 -1°C° 0 mm 3 mps 759 mmHg 78%
02:00 -1°C° 0 mm 3 mps 760 mmHg 80%
03:00 -2°C° 0 mm 3 mps 760 mmHg 82%
04:00 -2°C° 0 mm 3 mps 760 mmHg 85%
05:00 0°C° 0 mm 3 mps 760 mmHg 80%
06:00 0°C° 0 mm 4 mps 760 mmHg 76%
07:00 +3°C° 0 mm 4 mps 760 mmHg 72%
08:00 +4°C° 0 mm 4 mps 761 mmHg 62%
09:00 +6°C° 0 mm 5 mps 761 mmHg 52%
10:00 +7°C° 0 mm 5 mps 761 mmHg 42%
11:00 +8°C° 0 mm 5 mps 761 mmHg 42%
12:00 +8°C° 0 mm 5 mps 761 mmHg 42%
13:00 +9°C° 0 mm 5 mps 761 mmHg 42%
14:00 +9°C° 0 mm 6 mps 761 mmHg 42%
15:00 +9°C° 0 mm 6 mps 760 mmHg 43%
16:00 +9°C° 0 mm 6 mps 760 mmHg 43%
17:00 +7°C° 0 mm 6 mps 760 mmHg 46%
18:00 +5°C° 0 mm 5 mps 761 mmHg 49%
19:00 +3°C° 0 mm 4 mps 761 mmHg 52%
20:00 +3°C° 0 mm 3 mps 761 mmHg 55%
21:00 +3°C° 0 mm 2 mps 761 mmHg 57%
22:00 +2°C° 0 mm 2 mps 761 mmHg 59%
23:00 +1°C° 0 mm 2 mps 761 mmHg 61%
Show more